Meteo pe oră la Dabrowki

Astăzi, 11 Aprilie, Duminică

Timp Temperatura Precipitaţii Vânt Presiune Umiditate
00:00 +9°C° 0.2 mm 1 m/s 751 mmHg 87%
01:00 +9°C° 0.2 mm 1 m/s 752 mmHg 87%
02:00 +9°C° 0.2 mm 1 m/s 752 mmHg 87%
03:00 +9°C° 0 mm 1 m/s 752 mmHg 87%
04:00 +9°C° 0 mm 1 m/s 752 mmHg 86%
05:00 +9°C° 0 mm 1 m/s 752 mmHg 85%
06:00 +10°C° 0 mm 1 m/s 752 mmHg 83%
07:00 +9°C° 0 mm 2 m/s 753 mmHg 80%
08:00 +10°C° 0 mm 2 m/s 753 mmHg 78%
09:00 +11°C° 0 mm 3 m/s 753 mmHg 70%
10:00 +13°C° 0 mm 4 m/s 753 mmHg 63%
11:00 +15°C° 0 mm 5 m/s 753 mmHg 55%
12:00 +15°C° 0 mm 5 m/s 753 mmHg 51%
13:00 +16°C° 0 mm 6 m/s 753 mmHg 46%
14:00 +17°C° 0 mm 7 m/s 753 mmHg 42%
15:00 +17°C° 0 mm 6 m/s 753 mmHg 43%
16:00 +16°C° 0 mm 6 m/s 752 mmHg 44%
17:00 +16°C° 0 mm 6 m/s 752 mmHg 45%
18:00 +15°C° 0 mm 6 m/s 752 mmHg 48%
19:00 +14°C° 0 mm 5 m/s 753 mmHg 51%
20:00 +13°C° 0 mm 5 m/s 753 mmHg 53%
21:00 +12°C° 0 mm 5 m/s 753 mmHg 53%
22:00 +11°C° 0 mm 6 m/s 753 mmHg 53%
23:00 +10°C° 0 mm 6 m/s 753 mmHg 53%

Mâine, 12 Aprilie, Luni

Timp Temperatura Precipitaţii Vânt Presiune Umiditate
00:00 +10°C° 0 mm 6 m/s 753 mmHg 54%
01:00 +9°C° 0 mm 5 m/s 753 mmHg 55%
02:00 +9°C° 0 mm 5 m/s 753 mmHg 55%
03:00 +8°C° 0 mm 5 m/s 752 mmHg 57%
04:00 +8°C° 0 mm 5 m/s 752 mmHg 59%
05:00 +7°C° 0 mm 5 m/s 752 mmHg 61%
06:00 +7°C° 0 mm 5 m/s 752 mmHg 60%
07:00 +8°C° 0 mm 5 m/s 752 mmHg 60%
08:00 +8°C° 0 mm 5 m/s 752 mmHg 59%
09:00 +8°C° 0 mm 5 m/s 752 mmHg 59%
10:00 +10°C° 0 mm 4 m/s 752 mmHg 58%
11:00 +11°C° 0 mm 4 m/s 752 mmHg 57%
12:00 +11°C° 0 mm 4 m/s 751 mmHg 59%
13:00 +12°C° 0 mm 4 m/s 751 mmHg 60%
14:00 +13°C° 0 mm 4 m/s 751 mmHg 61%
15:00 +12°C° 0 mm 4 m/s 751 mmHg 65%
16:00 +11°C° 0 mm 3 m/s 751 mmHg 70%
17:00 +11°C° 0 mm 3 m/s 750 mmHg 74%
18:00 +11°C° 0 mm 3 m/s 751 mmHg 76%
19:00 +10°C° 0 mm 3 m/s 751 mmHg 78%
20:00 +10°C° 0 mm 2 m/s 751 mmHg 80%
21:00 +10°C° 0 mm 2 m/s 751 mmHg 82%
22:00 +10°C° 0 mm 2 m/s 751 mmHg 84%
23:00 +10°C° 0 mm 1 m/s 750 mmHg 86%

Poimâine, 13 Aprilie, Marţi

Timp Temperatura Precipitaţii Vânt Presiune Umiditate
00:00 +9°C° 0 mm 2 m/s 751 mmHg 88%
01:00 +8°C° 0 mm 3 m/s 751 mmHg 90%
02:00 +8°C° 0 mm 3 m/s 751 mmHg 91%
03:00 +6°C° 0 mm 4 m/s 751 mmHg 90%
04:00 +5°C° 0 mm 4 m/s 751 mmHg 89%
05:00 +4°C° 0 mm 4 m/s 751 mmHg 87%
06:00 +4°C° 0 mm 4 m/s 752 mmHg 86%
07:00 +4°C° 0 mm 4 m/s 752 mmHg 84%
08:00 +4°C° 0 mm 4 m/s 752 mmHg 83%
09:00 +3°C° 0 mm 5 m/s 752 mmHg 79%
10:00 +3°C° 0 mm 5 m/s 753 mmHg 76%
11:00 +3°C° 0 mm 5 m/s 753 mmHg 73%
12:00 +3°C° 0.2 mm 5 m/s 753 mmHg 76%
13:00 +3°C° 0.2 mm 5 m/s 753 mmHg 79%
14:00 +2°C° 0.2 mm 5 m/s 753 mmHg 83%
15:00 +2°C° 0.5 mm 5 m/s 753 mmHg 87%
16:00 +1°C° 0.5 mm 5 m/s 753 mmHg 91%
17:00 +1°C° 0.5 mm 5 m/s 753 mmHg 95%
18:00 +1°C° 0.3 mm 5 m/s 753 mmHg 95%
19:00 0°C° 0.3 mm 5 m/s 754 mmHg 96%
20:00 0°C° 0.3 mm 5 m/s 754 mmHg 96%
21:00 0°C° 0.4 mm 5 m/s 754 mmHg 96%
22:00 0°C° 0.4 mm 5 m/s 754 mmHg 96%
23:00 0°C° 0.4 mm 5 m/s 754 mmHg 96%

14 Aprilie, Miercuri

Timp Temperatura Precipitaţii Vânt Presiune Umiditate
00:00 0°C° 0.3 mm 5 m/s 753 mmHg 96%
01:00 0°C° 0.3 mm 5 m/s 753 mmHg 96%
02:00 0°C° 0.3 mm 5 m/s 753 mmHg 96%
03:00 0°C° 1 mm 5 m/s 752 mmHg 96%
04:00 0°C° 1 mm 5 m/s 752 mmHg 97%
05:00 -1°C° 1 mm 6 m/s 752 mmHg 97%
06:00 -2°C° 1.2 mm 6 m/s 752 mmHg 97%
07:00 -2°C° 1.2 mm 6 m/s 752 mmHg 97%
08:00 -2°C° 1.2 mm 6 m/s 752 mmHg 97%
09:00 -2°C° 0.9 mm 6 m/s 752 mmHg 97%
10:00 -2°C° 0.9 mm 6 m/s 752 mmHg 97%
11:00 -2°C° 0.9 mm 7 m/s 752 mmHg 97%
12:00 -1°C° 0.3 mm 7 m/s 751 mmHg 97%
13:00 -1°C° 0.3 mm 7 m/s 751 mmHg 97%
14:00 -1°C° 0.3 mm 7 m/s 751 mmHg 97%
15:00 -1°C° 0.1 mm 7 m/s 751 mmHg 96%
16:00 -1°C° 0.1 mm 7 m/s 751 mmHg 96%
17:00 -1°C° 0.1 mm 7 m/s 751 mmHg 96%
18:00 -1°C° 0.2 mm 7 m/s 751 mmHg 96%
19:00 -1°C° 0.2 mm 7 m/s 751 mmHg 96%
20:00 -1°C° 0.2 mm 7 m/s 751 mmHg 95%
21:00 -1°C° 0.6 mm 7 m/s 751 mmHg 95%
22:00 -1°C° 0.6 mm 7 m/s 750 mmHg 95%
23:00 -1°C° 0.6 mm 7 m/s 750 mmHg 95%

15 Aprilie, Joi

Timp Temperatura Precipitaţii Vânt Presiune Umiditate
00:00 -1°C° 0.3 mm 7 m/s 750 mmHg 95%
01:00 0°C° 0.3 mm 7 m/s 750 mmHg 95%
02:00 +1°C° 0.3 mm 6 m/s 750 mmHg 95%
03:00 +1°C° 0.2 mm 6 m/s 750 mmHg 95%
04:00 +1°C° 0.2 mm 6 m/s 751 mmHg 95%
05:00 +1°C° 0.2 mm 6 m/s 751 mmHg 95%
06:00 +1°C° 0.1 mm 6 m/s 751 mmHg 95%
07:00 +2°C° 0.1 mm 6 m/s 751 mmHg 95%
08:00 +2°C° 0.1 mm 6 m/s 752 mmHg 94%
09:00 +3°C° 0.1 mm 6 m/s 752 mmHg 92%
10:00 +3°C° 0.1 mm 6 m/s 752 mmHg 91%
11:00 +4°C° 0.1 mm 6 m/s 753 mmHg 89%
12:00 +5°C° 0 mm 6 m/s 753 mmHg 87%
13:00 +7°C° 0 mm 6 m/s 753 mmHg 84%
14:00 +7°C° 0 mm 6 m/s 753 mmHg 82%
15:00 +7°C° 0 mm 6 m/s 753 mmHg 83%
16:00 +6°C° 0 mm 7 m/s 753 mmHg 85%
17:00 +5°C° 0 mm 7 m/s 754 mmHg 86%
18:00 +5°C° 0 mm 6 m/s 754 mmHg 84%
19:00 +4°C° 0 mm 6 m/s 754 mmHg 83%
20:00 +4°C° 0 mm 6 m/s 755 mmHg 81%
21:00 +4°C° 0 mm 6 m/s 755 mmHg 79%
22:00 +3°C° 0 mm 6 m/s 755 mmHg 76%
23:00 +3°C° 0 mm 6 m/s 756 mmHg 74%

16 Aprilie, Vineri

Timp Temperatura Precipitaţii Vânt Presiune Umiditate
00:00 +3°C° 0 mm 6 m/s 756 mmHg 75%
01:00 +2°C° 0 mm 5 m/s 756 mmHg 75%
02:00 +1°C° 0 mm 5 m/s 756 mmHg 75%
03:00 0°C° 0 mm 5 m/s 757 mmHg 78%
04:00 0°C° 0 mm 5 m/s 757 mmHg 80%
05:00 -1°C° 0 mm 5 m/s 757 mmHg 82%
06:00 0°C° 0 mm 5 m/s 758 mmHg 80%
07:00 +1°C° 0 mm 5 m/s 758 mmHg 77%
08:00 +2°C° 0 mm 6 m/s 759 mmHg 75%
09:00 +4°C° 0 mm 6 m/s 759 mmHg 67%
10:00 +5°C° 0 mm 6 m/s 759 mmHg 59%
11:00 +6°C° 0 mm 7 m/s 760 mmHg 51%
12:00 +8°C° 0 mm 7 m/s 760 mmHg 47%
13:00 +8°C° 0 mm 7 m/s 760 mmHg 43%
14:00 +9°C° 0 mm 7 m/s 760 mmHg 39%
15:00 +9°C° 0 mm 6 m/s 760 mmHg 40%
16:00 +9°C° 0 mm 6 m/s 760 mmHg 42%
17:00 +9°C° 0 mm 5 m/s 761 mmHg 44%
18:00 +7°C° 0 mm 5 m/s 761 mmHg 50%
19:00 +6°C° 0 mm 4 m/s 761 mmHg 55%
20:00 +4°C° 0 mm 3 m/s 762 mmHg 61%
21:00 +3°C° 0 mm 3 m/s 762 mmHg 64%
22:00 +3°C° 0 mm 3 m/s 762 mmHg 66%
23:00 +2°C° 0 mm 3 m/s 762 mmHg 69%
Arată mai mult

Formular de consimțământ

Meteoprog și furnizorii noștri de servicii pot stoca și accesa date personale, precum cookies, identificatori de dispozitiv sau alte tehnologii similare pe dispozitivul dumneavoastră și procesa astfel de date pentru a personaliza conținutul și reclamele, dar și pentru a oferi caracteristici de social media și pentru a analiza traficul.

  • Stocarea și/sau accesarea informațiilor pe dispozitivul dumneavoastră

    Cookies, identificatori de dispozitiv sau alte informații pot fi stocate sau accesate pe dispozitiv în scopurile indicate mai sus.

  • Reclame și conținut personalizat, evaluarea reclamelor și a conținutului, informații despre audiențe și dezvoltarea produselor

    Reclamele și conținutul pot fi personalizate pe baza unui profil. Pot fi adăugate date suplimentare pentru a personaliza mai bine reclamele și conținutul. Performanța reclamelor și conținutului poate fi măsurată. Pot fi obținute informații despre utilizatorii care au văzut reclamele și conținutul. Aceste date pot fi utilizate pentru a dezvolta sau îmbunătăți experiența utilizatorilor, sistemele și software-ul.

Dând clic pe ‘Sunt de acord’, permiteți utilizarea cookie-urilor menționate, a identificatorilor de dispozitiv, balizelor web sau altor tehnologii similare. Setările pot fi modificate din browser-ul dispozitivului dumneavoastră.

În anumite scopuri, interesele legitime pot prima asupra consimțământului. Puteți citi mai multe informații în acest sens în Politica privind Confidențialitatea Datelor și Cookie.